Regional Weather Roundup
Issued by NWS Cleveland, OH

Home | Current Version | Previous Version | Graphics & Text | Print | Product List | Glossary On
Versions: 1 2 3 4 5 6 7 8 9 10 11 12 13 14 15 16 17 18 19 20 21 22 23 24 25 26 27 28 29 30 31 32 33 34 35 36 37 38 39 40 41 42 43 44 45 46 47 48 49 50
000
ASUS41 KCLE 272302
RWRCLE
OHIO REGIONAL WEATHER ROUNDUP
NATIONAL WEATHER SERVICE CLEVELAND, OH
700 PM EDT THU AUG 27 2015

NOTE: "FAIR" INDICATES FEW OR NO CLOUDS BELOW 12,000 FEET WITH NO
SIGNIFICANT WEATHER AND/OR OBSTRUCTIONS TO VISIBILITY.

OHZ001>008-015>018-024>027-034-035-043-044-280000-
   NORTHWEST OHIO

CITY           SKY/WX    TMP DP  RH WIND       PRES   REMARKS
DEFIANCE       MOSUNNY   71  57  61 N5        30.16S
FINDLAY        SUNNY     74  55  51 N7        30.15S
TOLEDO EXPRESS SUNNY     69  54  58 N7        30.16S
TOLEDO EXEC    SUNNY     69  54  58 NE5       30.18S
LIMA           MOSUNNY   70  57  63 CALM      30.16S
$$

OHZ009>014-019>023-028>033-038-089-280000-
   NORTHEAST OHIO

CITY           SKY/WX    TMP DP  RH WIND       PRES   REMARKS
CLE-HOPKINS    MOSUNNY   67  55  65 N10       30.19S
CLE-LAKEFRONT  MOSUNNY   67  55  65 N8        30.17S
CUY CO. ARPT   MOSUNNY   66  57  72 N9        30.18R
LORAIN-ELYRIA  SUNNY     66  54  65 N7        30.18S
ASHTABULA      SUNNY     65  55  70 NW9       30.18R
AKRON-CANTON   PTSUNNY   71  54  54 N8        30.16R
WOOSTER        CLOUDY    70  55  59 N3        30.16S
MANSFIELD      MOSUNNY   70  56  61 N9        30.17R
YOUNGSTOWN     MOSUNNY   69  54  58 N9        30.16R
$$

OHZ042-051>053-060>062-070>072-077>081-280000-
  SOUTHWEST OHIO

CITY           SKY/WX    TMP DP  RH WIND       PRES   REMARKS
CINC-COVINGTON MOSUNNY   75  54  47 NE6       30.14F
CINC-LUNKEN    MOSUNNY   72  58  61 CALM      30.14S
HAMILTON       MOSUNNY   75  57  53 NE5       30.14F
DAYTON         MOSUNNY   74  55  51 NW5       30.15F
WRIGHT-PAT AFB PTSUNNY   73  53  49 NW2       30.14S
DAYTON GENERAL SUNNY     73  54  51 CALM      30.14S
WILMINGTON     SUNNY     72  54  53 CALM      30.15S
$$

OHZ036-037-039>041-045>050-054>059-063>069-073>076-082>088-280000-
  CENTRAL AND SOUTHEAST OHIO

CITY           SKY/WX    TMP DP  RH WIND       PRES   REMARKS
COLUMBUS       MOSUNNY   76  52  43 NE5       30.13S
OSU AIRPORT    MOSUNNY   74  54  49 N5        30.14S
BOLTON FIELD   MOSUNNY   73  57  56 W3        30.15S
RICKENBACK AFB PTSUNNY   74  53  47 CALM      30.14S
NEWARK         PTSUNNY   72  56  57 NW3       30.14R
MARION         SUNNY     70  56  61 N7        30.15S
LANCASTER      PTSUNNY   73  55  53 NE3       30.15R
ZANESVILLE     CLOUDY    73  53  49 NW5       30.14S
NEW PHILLY     CLOUDY    72  55  55 NE6       30.16R
$$


USA.gov is the U.S. government's official web portal to all federal, state and local government web resources and services.